FW6662 Weather Reports


Display with metric or nautical units.
time (UTC)temp
F
wind
direction
speed
MPH
gust
MPH
rain 1hr
in
rain 24hr
in
rain mn
in
humidity
%
barometer
mb
20260507201504 57 220 1.0 7.0 0.00 0.04 0.00 51 1009.6
20260507201004 57 258 1.0 7.0 0.00 0.05 0.00 49 1009.8
20260507200504 57 248 1.0 6.0 0.00 0.07 0.00 48 1009.9
20260507200004 57 193 1.0 6.0 0.00 0.07 0.00 48 1009.7
20260507195525 57 226 1.0 6.0 0.00 0.07 0.00 51 1009.8
20260507195025 57 250 1.0 6.0 0.00 0.07 0.00 51 1009.9
20260507194504 57 312 1.0 7.0 0.00 0.07 0.00 51 1009.9
20260507194004 57 303 1.0 7.0 0.00 0.07 0.00 48 1009.9
20260507193504 58 284 1.0 4.0 0.00 0.07 0.00 47 1010.0
20260507193004 58 351 1.0 6.0 0.00 0.07 0.00 47 1010.1
20260507192504 58 351 3.0 12.0 0.00 0.07 0.00 48 1010.0
20260507192004 59 330 3.0 12.0 0.00 0.07 0.00 47 1010.0
20260507191525 59 283 3.0 12.0 0.00 0.07 0.00 47 1010.0
20260507191004 59 216 1.0 12.0 0.00 0.07 0.00 54 1010.0
20260507190504 59 281 3.0 7.0 0.00 0.07 0.00 44 1010.2
20260507190005 59 314 3.0 7.0 0.00 0.07 0.00 50 1010.1
20260507185504 58 323 3.0 12.0 0.00 0.07 0.00 48 1010.3
20260507185004 58 313 3.0 12.0 0.00 0.07 0.00 51 1010.4
20260507184504 58 308 1.0 6.0 0.00 0.07 0.00 49 1010.4
20260507184004 59 318 3.0 6.0 0.00 0.07 0.00 45 1010.5
20260507183504 59 291 1.0 6.0 0.00 0.07 0.00 47 1010.5
20260507183004 59 294 3.0 13.0 0.00 0.07 0.00 48 1010.6
20260507182504 59 296 3.0 13.0 0.00 0.07 0.00 48 1010.6
20260507182004 58 287 3.0 10.0 0.00 0.07 0.00 47 1010.6
20260507181504 59 320 4.0 12.0 0.00 0.07 0.00 47 1010.6
20260507181004 59 310 4.0 19.0 0.00 0.07 0.00 49 1010.7
20260507180504 60 305 4.0 19.0 0.00 0.07 0.00 47 1010.6
20260507180004 60 306 4.0 14.0 0.00 0.07 0.00 48 1010.7
20260507175504 60 296 3.0 13.0 0.00 0.07 0.00 43 1010.8
20260507175004 60 301 3.0 10.0 0.00 0.07 0.00 47 1010.7
20260507174504 60 294 3.0 13.0 0.00 0.07 0.00 47 1010.7
20260507174004 59 267 3.0 13.0 0.00 0.07 0.00 42 1010.8
20260507173504 59 298 4.0 12.0 0.00 0.07 0.00 46 1010.9
20260507173004 59 333 4.0 14.0 0.00 0.07 0.00 45 1010.8
20260507172504 59 315 4.0 14.0 0.00 0.07 0.00 44 1011.1
20260507172004 59 308 3.0 12.0 0.00 0.07 0.00 51 1011.1
20260507171504 59 296 3.0 12.0 0.00 0.07 0.00 45 1011.2
20260507171004 59 304 3.0 13.0 0.00 0.08 0.00 50 1011.3
20260507170504 59 277 3.0 13.0 0.00 0.08 0.00 52 1011.3
20260507170004 58 218 3.0 12.0 0.00 0.08 0.00 50 1011.3
20260507165504 58 249 3.0 13.0 0.00 0.09 0.00 49 1011.4
20260507165004 58 241 3.0 13.0 0.00 0.09 0.00 52 1011.4
20260507164504 57 217 3.0 12.0 0.00 0.09 0.00 48 1011.4
20260507164004 57 270 3.0 9.0 0.00 0.09 0.00 48 1011.6
20260507163504 57 271 3.0 9.0 0.00 0.10 0.00 48 1011.6
20260507163005 56 268 3.0 10.0 0.00 0.10 0.00 50 1011.7
20260507162525 56 277 4.0 14.0 0.00 0.10 0.00 51 1011.6
20260507162004 56 279 3.0 14.0 0.00 0.10 0.00 49 1012.0
20260507161504 56 327 3.0 10.0 0.00 0.10 0.00 56 1012.0
20260507161025 56 346 3.0 10.0 0.00 0.10 0.00 52 1012.0
20260507160504 55 291 3.0 10.0 0.00 0.10 0.00 51 1012.1
20260507160004 55 288 3.0 9.0 0.00 0.11 0.00 54 1012.1
20260507155504 54 268 1.0 12.0 0.00 0.11 0.00 58 1012.2
20260507155004 54 205 1.0 12.0 0.00 0.11 0.00 56 1012.3
20260507154504 54 74 3.0 7.0 0.00 0.11 0.00 57 1012.4
20260507154004 54 34 3.0 7.0 0.00 0.12 0.00 57 1012.3
20260507153504 54 262 1.0 6.0 0.00 0.12 0.00 55 1012.6
20260507153004 55 233 1.0 6.0 0.00 0.13 0.00 55 1012.5
20260507152504 54 224 1.0 6.0 0.00 0.13 0.00 57 1012.6
20260507152004 54 222 1.0 6.0 0.00 0.14 0.00 63 1012.7
20260507151504 53 227 3.0 9.0 0.00 0.15 0.00 58 1012.8
20260507151004 53 262 1.0 9.0 0.00 0.15 0.00 61 1012.9
20260507150504 52 271 3.0 7.0 0.00 0.16 0.00 63 1012.9
20260507150025 52 258 3.0 9.0 0.00 0.16 0.00 57 1013.0
20260507145525 52 269 3.0 9.0 0.00 0.16 0.00 60 1013.0
20260507145004 52 285 1.0 7.0 0.00 0.16 0.00 58 1013.0
20260507144503 51 296 3.0 6.0 0.00 0.17 0.00 59 1013.0
20260507144004 50 307 3.0 6.0 0.00 0.17 0.00 63 1013.0
20260507143504 50 296 3.0 10.0 0.00 0.17 0.00 69 1013.0
20260507143004 49 324 3.0 10.0 0.00 0.18 0.00 64 1013.0
20260507142504 49 353 1.0 6.0 0.00 0.18 0.00 64 1012.9
20260507142004 48 247 0.0 6.0 0.00 0.18 0.00 67 1012.8
20260507141504 48 164 1.0 7.0 0.00 0.18 0.00 69 1012.8
20260507141025 48 173 1.0 7.0 0.00 0.19 0.00 68 1012.9
20260507140503 48 205 1.0 3.0 0.00 0.19 0.00 67 1013.2
20260507140004 48 201 1.0 3.0 0.00 0.20 0.00 68 1013.2
20260507135525 47 198 0.0 6.0 0.00 0.21 0.00 69 1013.4
20260507135004 47 253 1.0 6.0 0.00 0.21 0.00 71 1013.4
20260507134504 46 285 1.0 6.0 0.00 0.22 0.00 71 1013.3
20260507134004 46 278 1.0 6.0 0.00 0.23 0.00 76 1013.3
20260507133504 46 300 1.0 6.0 0.00 0.24 0.00 75 1013.3
20260507133004 45 318 3.0 9.0 0.00 0.25 0.00 74 1013.4
20260507132504 45 310 1.0 9.0 0.00 0.25 0.00 77 1013.5
20260507132025 45 297 1.0 6.0 0.00 0.26 0.00 81 1013.4
20260507131503 45 299 1.0 9.0 0.00 0.27 0.00 80 1013.4
20260507131004 44 280 1.0 9.0 0.00 0.28 0.00 79 1013.4
20260507130504 44 295 1.0 6.0 0.00 0.28 0.00 80 1013.4
20260507130004 44 280 1.0 6.0 0.00 0.29 0.00 83 1013.5
20260507125503 44 269 1.0 6.0 0.00 0.30 0.00 83 1013.5
20260507125004 43 302 1.0 6.0 0.00 0.31 0.00 85 1013.4
20260507124504 43 321 1.0 6.0 0.00 0.32 0.00 85 1013.4
20260507124004 42 331 1.0 4.0 0.00 0.32 0.00 85 1013.5
20260507123503 42 322 1.0 4.0 0.00 0.32 0.00 87 1013.3
20260507123004 42 308 1.0 7.0 0.00 0.32 0.00 87 1013.3
20260507122503 42 291 1.0 7.0 0.00 0.32 0.00 87 1013.3
20260507122025 41 266 1.0 6.0 0.00 0.32 0.00 88 1013.3
20260507121504 41 291 1.0 10.0 0.00 0.32 0.00 90 1013.2
20260507121004 41 308 1.0 10.0 0.00 0.32 0.00 89 1013.2
20260507120503 40 315 1.0 6.0 0.00 0.32 0.00 90 1013.2
20260507120024 40 341 1.0 6.0 0.00 0.32 0.00 91 1013.3
20260507115503 40 341 1.0 6.0 0.00 0.32 0.00 92 1013.2
20260507115003 40 316 0.0 3.0 0.00 0.32 0.00 94 1013.3
20260507114504 40 300 0.0 3.0 0.00 0.32 0.00 94 1013.3
20260507114003 40 286 0.0 3.0 0.00 0.32 0.00 95 1013.2
20260507113503 39 275 1.0 3.0 0.00 0.32 0.00 94 1013.2
20260507113004 39 265 0.0 3.0 0.00 0.32 0.00 95 1013.2
20260507112503 39 275 0.0 6.0 0.00 0.32 0.00 95 1013.1
20260507112004 39 311 0.0 6.0 0.00 0.32 0.00 95 1013.0
20260507111524 39 8 0.0 4.0 0.00 0.32 0.00 95 1012.8
20260507111003 39 15 0.0 3.0 0.00 0.32 0.00 95 1012.8
20260507110503 39 342 0.0 3.0 0.00 0.32 0.00 95 1012.7
20260507110004 39 308 0.0 3.0 0.00 0.32 0.00 95 1012.8
20260507105503 39 293 0.0 3.0 0.00 0.32 0.00 95 1012.8
20260507105004 39 298 0.0 3.0 0.00 0.32 0.00 95 1013.0
20260507104524 39 192 0.0 3.0 0.00 0.32 0.00 95 1012.7
20260507104024 39 193 0.0 3.0 0.00 0.32 0.00 95 1012.7
20260507103503 39 207 0.0 1.0 0.00 0.32 0.00 94 1012.8
20260507103004 39 0 0.0 0.0 0.00 0.32 0.00 94 1012.6
20260507102503 39 0 0.0 0.0 0.00 0.32 0.00 94 1012.5
20260507102003 39 0 0.0 0.0 0.00 0.32 0.00 94 1012.5
20260507101524 39 211 0.0 1.0 0.00 0.32 0.00 94 1012.4
20260507101004 40 224 0.0 1.0 0.00 0.32 0.00 94 1012.5
20260507100503 40 253 0.0 1.0 0.00 0.32 0.00 94 1012.4
20260507100004 40 247 0.0 4.0 0.00 0.32 0.00 94 1012.4
20260507095524 40 192 0.0 4.0 0.00 0.32 0.00 94 1012.3
20260507095003 40 162 0.0 3.0 0.00 0.32 0.00 94 1012.3
20260507094503 40 229 1.0 6.0 0.00 0.32 0.00 94 1012.3
20260507094024 40 296 1.0 10.0 0.00 0.32 0.00 94 1012.2
20260507093503 41 306 1.0 10.0 0.00 0.32 0.00 94 1012.3
20260507093003 41 209 1.0 9.0 0.00 0.32 0.00 95 1012.3
20260507092503 41 216 0.0 4.0 0.00 0.32 0.00 95 1012.3
20260507092003 41 255 0.0 4.0 0.00 0.32 0.00 95 1012.2
20260507091504 42 281 0.0 4.0 0.00 0.32 0.00 95 1012.1
20260507091003 42 277 0.0 4.0 0.00 0.32 0.00 95 1012.1
20260507090503 42 39 0.0 1.0 0.00 0.32 0.00 95 1012.3
20260507090004 42 87 0.0 1.0 0.00 0.32 0.00 95 1012.1
20260507085503 42 119 0.0 3.0 0.00 0.32 0.00 95 1012.2
20260507085003 42 189 0.0 6.0 0.00 0.32 0.00 94 1012.0
20260507084503 43 231 1.0 6.0 0.00 0.32 0.00 94 1011.9
20260507084003 43 269 1.0 9.0 0.00 0.32 0.00 94 1011.9
20260507083503 43 282 1.0 12.0 0.00 0.32 0.00 94 1011.8
20260507083024 43 243 1.0 12.0 0.00 0.32 0.00 94 1011.9
20260507082503 43 235 3.0 10.0 0.00 0.32 0.00 95 1012.0
20260507082003 44 222 3.0 10.0 0.00 0.32 0.00 96 1012.1
20260507081503 44 189 1.0 6.0 0.00 0.32 0.00 97 1012.1
20260507081024 44 215 1.0 6.0 0.00 0.32 0.00 97 1012.3
20260507080503 44 284 1.0 9.0 0.00 0.32 0.00 97 1012.2
20260507080003 44 301 0.0 9.0 0.00 0.32 0.00 97 1012.1
20260507075524 44 300 0.0 3.0 0.00 0.32 0.00 97 1012.1
20260507075003 44 314 0.0 4.0 0.00 0.32 0.00 97 1012.1
20260507074503 44 297 0.0 6.0 0.00 0.32 0.00 97 1012.2
20260507074003 44 281 1.0 6.0 0.00 0.32 0.00 97 1012.1
20260507073503 44 286 1.0 6.0 0.00 0.32 0.00 97 1012.3
20260507073024 44 277 1.0 4.0 0.00 0.32 0.00 97 1012.2
20260507072524 44 278 1.0 4.0 0.00 0.32 0.00 97 1012.2
20260507072003 44 296 1.0 9.0 0.00 0.32 0.00 97 1012.4
20260507071524 44 295 1.0 9.0 0.00 0.32 0.00 97 1012.3
20260507071024 44 293 1.0 4.0 0.00 0.32 0.00 97 1012.4
20260507070503 44 304 1.0 4.0 0.00 0.32 0.00 97 1012.3
20260507070008 45 304 1.0 4.0 0.00 0.32 0.00 98 1012.3
20260507065503 45 314 1.0 4.0 0.00 0.32 0.00 98 1012.5
20260507065003 45 308 1.0 6.0 0.00 0.32 0.00 98 1012.4
20260507064503 45 299 1.0 6.0 0.00 0.32 0.00 98 1012.3
20260507064024 44 0 0.0 0.0 0.00 0.32 0.00 98 1012.3
20260507063503 44 0 0.0 0.0 0.00 0.32 0.00 98 1012.2
20260507063003 44 0 0.0 0.0 0.00 0.32 0.00 98 1012.2
20260507062503 44 0 0.0 0.0 0.00 0.32 0.00 98 1012.1
20260507062003 44 0 0.0 0.0 0.00 0.32 0.00 98 1012.2
20260507061503 44 167 0.0 1.0 0.00 0.32 0.00 98 1012.0
20260507061003 44 163 0.0 6.0 0.00 0.32 0.00 98 1012.1
20260507060503 44 161 0.0 6.0 0.00 0.32 0.00 97 1011.9
20260507060003 44 50 0.0 1.0 0.00 0.32 0.00 98 1012.0
20260507055503 44 50 0.0 1.0 0.00 0.32 0.00 98 1011.8
20260507055003 44 50 0.0 1.0 0.00 0.32 0.00 98 1011.6
20260507054503 44 50 0.0 1.0 0.00 0.32 0.00 98 1011.6
20260507054024 44 50 0.0 1.0 0.00 0.32 0.00 97 1011.5
20260507053503 44 0 0.0 0.0 0.00 0.32 0.00 98 1011.5
20260507053004 44 0 0.0 0.0 0.00 0.32 0.00 98 1011.7
20260507052505 44 0 0.0 0.0 0.00 0.32 0.00 98 1011.6
20260507052005 44 0 0.0 0.0 0.00 0.32 0.00 98 1011.5
20260507051505 45 0 0.0 0.0 0.00 0.32 0.00 98 1011.5
20260507051005 44 0 0.0 0.0 0.00 0.32 0.00 97 1011.5
20260507050505 44 0 0.0 0.0 0.00 0.32 0.00 97 1011.6
20260507050006 44 50 0.0 1.0 0.00 0.32 0.00 97 1011.6
20260507045505 44 50 0.0 1.0 0.00 0.32 0.00 97 1011.6
20260507045005 44 50 0.0 1.0 0.00 0.32 0.00 97 1011.8
20260507044505 44 50 0.0 1.0 0.00 0.32 0.00 97 1011.6
20260507044005 44 50 0.0 1.0 0.00 0.32 0.00 97 1011.7
20260507043505 44 50 0.0 1.0 0.00 0.32 0.00 97 1011.8
20260507043005 44 50 0.0 1.0 0.00 0.32 0.00 97 1011.9
20260507042505 44 50 0.0 3.0 0.00 0.32 0.00 97 1011.9
20260507042005 44 50 0.0 3.0 0.00 0.32 0.00 97 1011.9
20260507041505 44 50 0.0 3.0 0.00 0.32 0.00 97 1012.0
20260507041005 44 50 0.0 1.0 0.00 0.32 0.00 97 1012.2
20260507040526 44 50 0.0 1.0 0.00 0.32 0.00 97 1012.0
20260507040005 44 50 0.0 1.0 0.00 0.32 0.00 97 1012.0
20260507035505 44 50 0.0 1.0 0.00 0.32 0.32 97 1012.0
20260507035005 44 50 0.0 1.0 0.00 0.32 0.32 96 1011.9
20260507034526 45 0 0.0 0.0 0.00 0.32 0.32 96 1011.9
20260507034005 45 0 0.0 0.0 0.00 0.32 0.32 96 1011.9
20260507033526 45 0 0.0 0.0 0.00 0.32 0.32 96 1012.0
20260507033005 45 50 0.0 1.0 0.00 0.32 0.32 96 1011.7
20260507032505 45 50 0.0 1.0 0.00 0.32 0.32 96 1011.6
20260507032005 46 35 0.0 1.0 0.00 0.32 0.32 96 1011.3
20260507031505 46 35 0.0 1.0 0.00 0.32 0.32 96 1011.2
20260507031026 46 44 0.0 1.0 0.00 0.32 0.32 96 1011.4
20260507030506 46 51 0.0 1.0 0.00 0.32 0.32 97 1011.9
20260507030005 46 102 0.0 1.0 0.00 0.32 0.32 96 1011.8
20260507025505 46 87 0.0 1.0 0.00 0.32 0.32 97 1011.8
20260507025005 46 87 0.0 1.0 0.00 0.32 0.32 97 1011.9
20260507024505 46 0 0.0 0.0 0.00 0.32 0.32 97 1012.0
20260507024005 46 0 0.0 0.0 0.00 0.32 0.32 96 1011.9
20260507023526 46 86 0.0 1.0 0.00 0.32 0.32 96 1012.0
20260507023026 46 86 0.0 1.0 0.00 0.32 0.32 97 1011.9
20260507022505 46 105 0.0 1.0 0.00 0.32 0.32 97 1012.0
20260507022004 46 107 0.0 1.0 0.00 0.32 0.32 97 1012.1
20260507021504 46 123 0.0 3.0 0.00 0.32 0.32 96 1012.4
20260507021026 46 123 0.0 3.0 0.00 0.32 0.32 96 1012.1
20260507020525 46 0 0.0 0.0 0.00 0.32 0.32 96 1012.3
20260507020026 46 0 0.0 0.0 0.00 0.32 0.32 96 1012.3
20260507015506 46 127 0.0 1.0 0.00 0.32 0.32 96 1012.3
20260507015004 46 127 0.0 1.0 0.00 0.32 0.32 96 1012.4
20260507014504 46 0 0.0 0.0 0.00 0.32 0.32 96 1012.5
20260507014005 46 151 0.0 3.0 0.00 0.32 0.32 96 1012.5
20260507013505 46 162 0.0 3.0 0.00 0.32 0.32 96 1012.6
20260507013005 46 211 0.0 1.0 0.00 0.32 0.32 96 1012.5
20260507012504 46 214 0.0 1.0 0.00 0.32 0.32 96 1012.3
20260507012005 46 244 0.0 1.0 0.00 0.32 0.32 96 1012.2
20260507011005 46 180 0.0 1.0 0.00 0.32 0.32 96 1012.2
20260507010504 46 349 1.0 6.0 0.00 0.32 0.32 96 1012.3
20260507010005 47 310 1.0 6.0 0.00 0.32 0.32 96 1012.3
20260507005504 47 227 1.0 9.0 0.00 0.32 0.32 96 1012.2
20260507005026 47 211 1.0 9.0 0.00 0.32 0.32 96 1012.1
20260507004504 47 308 1.0 6.0 0.00 0.32 0.32 96 1012.0
20260507004026 47 285 1.0 6.0 0.00 0.32 0.32 96 1011.9
20260507003504 47 215 0.0 4.0 0.00 0.32 0.32 96 1011.8
20260507003005 47 279 0.0 3.0 0.00 0.32 0.32 96 1011.7
20260507002505 47 302 0.0 7.0 0.00 0.32 0.32 96 1011.5
20260507002026 47 3 0.0 7.0 0.00 0.32 0.32 96 1011.4
20260507001504 47 78 1.0 4.0 0.00 0.32 0.32 96 1011.2
20260507001004 48 73 0.0 4.0 0.00 0.32 0.32 96 1011.4
20260507000505 48 218 0.0 1.0 0.01 0.32 0.32 97 1011.4
20260507000005 48 170 0.0 3.0 0.01 0.32 0.32 96 1011.4
20260506235505 48 202 0.0 3.0 0.01 0.32 0.32 96 1011.3
20260506235004 48 271 0.0 3.0 0.01 0.32 0.32 97 1011.3
20260506234504 48 233 0.0 4.0 0.01 0.32 0.32 97 1011.2
20260506234005 48 249 1.0 6.0 0.01 0.32 0.32 97 1011.1
20260506233504 48 339 1.0 6.0 0.01 0.32 0.32 97 1011.1
20260506233005 48 31 1.0 6.0 0.01 0.32 0.32 96 1011.1
20260506232525 48 135 1.0 4.0 0.01 0.32 0.32 96 1011.1
20260506232004 48 109 1.0 6.0 0.01 0.32 0.32 96 1011.2
20260506231505 48 266 1.0 10.0 0.01 0.32 0.32 96 1011.2
20260506231025 48 251 1.0 10.0 0.01 0.32 0.32 96 1011.0
20260506230504 48 33 0.0 4.0 0.00 0.31 0.31 96 1011.1
20260506230005 48 279 1.0 6.0 0.00 0.31 0.31 96 1010.8
20260506225504 48 286 1.0 7.0 0.00 0.31 0.31 96 1010.8
20260506225004 48 288 1.0 9.0 0.00 0.31 0.31 96 1010.6
20260506224504 48 284 1.0 9.0 0.00 0.31 0.31 96 1010.7
20260506224004 48 77 1.0 9.0 0.00 0.31 0.31 96 1010.4
20260506223504 48 313 1.0 9.0 0.00 0.31 0.31 96 1010.4
20260506223004 48 298 1.0 9.0 0.00 0.31 0.31 96 1010.5
20260506222505 48 51 1.0 3.0 0.00 0.31 0.31 96 1010.3
20260506222004 48 46 3.0 13.0 0.00 0.31 0.31 96 1010.2
20260506221505 49 29 3.0 13.0 0.00 0.31 0.31 95 1009.9
20260506221025 49 310 3.0 12.0 0.00 0.31 0.31 96 1010.0
20260506220504 49 246 3.0 12.0 0.00 0.31 0.31 96 1009.8
20260506220025 49 193 3.0 12.0 0.00 0.31 0.31 96 1009.5
20260506215504 50 173 3.0 10.0 0.00 0.31 0.31 96 1009.4
20260506215006 50 183 3.0 10.0 0.01 0.31 0.31 96 1009.3
20260506214504 50 184 3.0 7.0 0.01 0.31 0.31 96 1009.4
20260506214025 50 187 3.0 9.0 0.01 0.31 0.31 96 1009.2
20260506213505 50 210 3.0 13.0 0.02 0.31 0.31 96 1008.9
20260506213004 50 227 3.0 13.0 0.02 0.31 0.31 96 1008.7
20260506212525 50 208 3.0 12.0 0.03 0.31 0.31 96 1008.6
20260506212004 51 243 3.0 12.0 0.03 0.31 0.31 96 1008.4
20260506211504 51 235 3.0 12.0 0.03 0.31 0.31 96 1008.4
20260506211026 51 264 3.0 13.0 0.04 0.31 0.31 96 1008.4
20260506210504 52 295 3.0 13.0 0.06 0.31 0.31 96 1008.3
20260506210005 52 263 3.0 19.0 0.06 0.31 0.31 96 1008.1
20260506205504 52 254 4.0 19.0 0.06 0.31 0.31 96 1008.1
20260506205004 52 258 4.0 10.0 0.05 0.30 0.30 96 1007.8
20260506204504 52 283 4.0 10.0 0.05 0.30 0.30 95 1007.7
20260506204004 53 293 4.0 13.0 0.05 0.30 0.30 95 1007.6
20260506203504 54 275 4.0 13.0 0.04 0.29 0.29 94 1007.5
20260506203004 54 270 3.0 12.0 0.04 0.29 0.29 94 1007.5
20260506202505 56 268 3.0 12.0 0.03 0.28 0.28 95 1007.5
20260506202004 56 269 3.0 12.0 0.03 0.28 0.28 95 1007.4